Time,TemperatureF,DewpointF,PressureIn,WindDirection,WindDirectionDegrees,WindSpeedMPH,WindSpeedGustMPH,Humidity,HourlyPrecipIn,Conditions,Clouds,dailyrainin,SoftwareType,DateUTC
2013-07-02 00:01:00,67.8,67.5,29.93,East,90,0.0,0.0,99,0.02,RA,,0.00,WeatherDisplay:10.37,2013-07-02 04:01:00,
2013-07-02 00:02:00,67.8,67.5,29.92,East,90,0.0,0.0,99,0.02,RA,,0.00,WeatherDisplay:10.37,2013-07-02 04:02:00,
2013-07-02 00:07:00,67.8,67.5,29.92,East,90,0.0,0.0,99,0.02,RA,,0.00,WeatherDisplay:10.37,2013-07-02 04:07:00,
2013-07-02 00:12:00,67.6,67.3,29.92,North,0,0.0,0.0,99,0.02,RA,,0.01,WeatherDisplay:10.37,2013-07-02 04:12:00,
2013-07-02 00:17:00,67.6,67.3,29.93,West,270,0.0,0.0,99,0.02,RA,,0.01,WeatherDisplay:10.37,2013-07-02 04:17:00,
2013-07-02 00:22:00,67.6,67.3,29.92,North,0,0.0,0.0,99,0.02,,,0.01,WeatherDisplay:10.37,2013-07-02 04:22:00,
2013-07-02 00:27:00,67.5,67.2,29.92,North,0,0.0,0.0,99,0.02,CLR,,0.01,WeatherDisplay:10.37,2013-07-02 04:27:00,
2013-07-02 00:32:00,67.5,67.2,29.92,SE,135,0.0,0.0,99,0.02,CLR,,0.01,WeatherDisplay:10.37,2013-07-02 04:32:00,
2013-07-02 00:37:00,67.5,67.2,29.93,East,90,0.0,0.0,99,0.02,CLR,,0.01,WeatherDisplay:10.37,2013-07-02 04:37:00,
2013-07-02 00:42:00,67.5,67.2,29.93,East,90,0.0,0.0,99,0.04,RA,,0.02,WeatherDisplay:10.37,2013-07-02 04:42:00,
2013-07-02 00:47:00,67.5,67.2,29.93,NW,315,0.0,0.0,99,0.04,RA,,0.02,WeatherDisplay:10.37,2013-07-02 04:47:00,
2013-07-02 00:52:00,67.5,67.2,29.93,West,270,0.0,0.0,99,0.05,RA,,0.04,WeatherDisplay:10.37,2013-07-02 04:52:00,
2013-07-02 00:57:00,67.5,67.2,29.92,North,0,1.1,0.0,99,0.04,RA,,0.04,WeatherDisplay:10.37,2013-07-02 04:57:00,
2013-07-02 01:02:00,67.5,67.2,29.92,SW,225,0.0,0.0,99,0.04,CLR,,0.04,WeatherDisplay:10.37,2013-07-02 05:02:00,
2013-07-02 01:07:00,67.5,67.2,29.92,West,270,0.0,0.0,99,0.04,CLR,,0.04,WeatherDisplay:10.37,2013-07-02 05:07:00,
2013-07-02 01:12:00,67.3,67.0,29.92,West,270,0.0,0.0,99,0.02,CLR,,0.04,WeatherDisplay:10.37,2013-07-02 05:12:00,
2013-07-02 01:17:00,67.3,67.0,29.92,West,270,0.0,0.0,99,0.02,CLR,,0.04,WeatherDisplay:10.37,2013-07-02 05:17:00,
2013-07-02 01:22:00,67.3,67.0,29.92,North,0,0.0,0.0,99,0.02,CLR,,0.04,WeatherDisplay:10.37,2013-07-02 05:22:00,
2013-07-02 01:27:00,67.3,67.0,29.92,North,0,0.0,0.0,99,0.02,CLR,,0.04,WeatherDisplay:10.37,2013-07-02 05:27:00,
2013-07-02 01:32:00,67.3,67.0,29.93,South,180,0.0,0.0,99,0.02,CLR,,0.04,WeatherDisplay:10.37,2013-07-02 05:32:00,
2013-07-02 01:37:00,67.5,67.2,29.94,SE,135,5.8,5.8,99,0.02,CLR,,0.04,WeatherDisplay:10.37,2013-07-02 05:37:00,
2013-07-02 01:42:00,67.3,67.0,29.94,South,180,2.3,2.3,99,0.01,CLR,,0.04,WeatherDisplay:10.37,2013-07-02 05:42:00,
2013-07-02 01:47:00,67.3,67.0,29.95,SW,225,2.3,0.0,99,0.01,CLR,,0.04,WeatherDisplay:10.37,2013-07-02 05:47:00,
2013-07-02 01:52:00,67.3,67.0,29.94,NW,315,2.3,0.0,99,0.01,RA,,0.05,WeatherDisplay:10.37,2013-07-02 05:52:00,
2013-07-02 01:57:00,67.3,67.0,29.93,NW,315,0.0,0.0,99,0.01,RA,,0.05,WeatherDisplay:10.37,2013-07-02 05:57:00,
2013-07-02 02:02:00,67.1,66.8,29.93,NW,315,13.8,0.0,99,0.01,,,0.05,WeatherDisplay:10.37,2013-07-02 06:02:00,
2013-07-02 02:07:00,67.1,66.8,29.93,NW,315,0.0,0.0,99,0.01,CLR,,0.05,WeatherDisplay:10.37,2013-07-02 06:07:00,
2013-07-02 02:12:00,67.1,66.8,29.93,NE,45,0.0,0.0,99,0.01,CLR,,0.05,WeatherDisplay:10.37,2013-07-02 06:12:00,
2013-07-02 02:17:00,66.9,66.6,29.92,NE,45,0.0,0.0,99,0.01,CLR,,0.05,WeatherDisplay:10.37,2013-07-02 06:17:00,
2013-07-02 02:22:00,66.9,66.6,29.93,NE,45,0.0,0.0,99,0.01,CLR,,0.05,WeatherDisplay:10.37,2013-07-02 06:22:00,
2013-07-02 02:27:00,67.1,66.8,29.93,West,270,0.0,0.0,99,0.02,RA,,0.06,WeatherDisplay:10.37,2013-07-02 06:27:00,
2013-07-02 02:32:00,66.9,66.6,29.93,NW,315,0.0,0.0,99,0.02,RA,,0.06,WeatherDisplay:10.37,2013-07-02 06:32:00,
2013-07-02 02:37:00,66.9,66.6,29.92,NW,315,0.0,0.0,99,0.02,CLR,,0.06,WeatherDisplay:10.37,2013-07-02 06:37:00,
2013-07-02 02:42:00,66.7,66.5,29.93,South,180,2.3,2.3,99,0.02,CLR,,0.06,WeatherDisplay:10.37,2013-07-02 06:42:00,
2013-07-02 02:47:00,66.7,66.5,29.93,South,180,2.3,0.0,99,0.02,CLR,,0.06,WeatherDisplay:10.37,2013-07-02 06:47:00,
2013-07-02 02:52:00,66.7,66.5,29.93,East,90,0.0,0.0,99,0.01,CLR,,0.06,WeatherDisplay:10.37,2013-07-02 06:52:00,
2013-07-02 02:57:00,66.7,66.5,29.93,SE,135,0.0,0.0,99,0.01,CLR,,0.06,WeatherDisplay:10.37,2013-07-02 06:57:00,
2013-07-02 03:02:00,66.7,66.5,29.93,North,0,1.1,0.0,99,0.01,CLR,,0.06,WeatherDisplay:10.37,2013-07-02 07:02:00,
2013-07-02 03:07:00,66.7,66.5,29.93,North,0,0.0,0.0,99,0.01,CLR,,0.06,WeatherDisplay:10.37,2013-07-02 07:07:00,
2013-07-02 03:12:00,66.6,66.3,29.93,NW,315,0.0,0.0,99,0.01,CLR,,0.06,WeatherDisplay:10.37,2013-07-02 07:12:00,
2013-07-02 03:17:00,66.6,66.3,29.93,North,0,0.0,0.0,99,0.01,CLR,,0.06,WeatherDisplay:10.37,2013-07-02 07:17:00,
2013-07-02 03:22:00,66.6,66.3,29.93,North,0,0.0,0.0,99,0.01,CLR,,0.06,WeatherDisplay:10.37,2013-07-02 07:22:00,
2013-07-02 03:27:00,66.4,66.1,29.93,North,0,0.0,0.0,99,0.00,CLR,,0.06,WeatherDisplay:10.37,2013-07-02 07:27:00,
2013-07-02 03:32:00,66.4,66.1,29.93,SW,225,0.0,0.0,99,0.00,CLR,,0.06,WeatherDisplay:10.37,2013-07-02 07:32:00,
2013-07-02 03:37:00,66.6,66.3,29.93,SW,225,0.0,0.0,99,0.00,CLR,,0.06,WeatherDisplay:10.37,2013-07-02 07:37:00,
2013-07-02 03:42:00,66.6,66.3,29.93,South,180,0.0,0.0,99,0.00,CLR,,0.06,WeatherDisplay:10.37,2013-07-02 07:42:00,
2013-07-02 03:47:00,66.6,66.3,29.92,West,270,0.0,0.0,99,0.00,CLR,,0.06,WeatherDisplay:10.37,2013-07-02 07:47:00,
2013-07-02 03:52:00,66.6,66.3,29.93,SW,225,0.0,0.0,99,0.00,CLR,,0.06,WeatherDisplay:10.37,2013-07-02 07:52:00,
2013-07-02 03:57:00,66.6,66.3,29.93,SW,225,0.0,0.0,99,0.00,CLR,,0.06,WeatherDisplay:10.37,2013-07-02 07:57:00,
2013-07-02 04:02:00,66.6,66.3,29.93,SW,225,0.0,0.0,99,0.00,CLR,,0.06,WeatherDisplay:10.37,2013-07-02 08:02:00,
2013-07-02 04:07:00,66.6,66.3,29.93,SW,225,0.0,0.0,99,0.00,CLR,,0.06,WeatherDisplay:10.37,2013-07-02 08:07:00,
2013-07-02 04:12:00,66.7,66.5,29.93,North,0,0.0,0.0,99,0.00,CLR,,0.06,WeatherDisplay:10.37,2013-07-02 08:12:00,
2013-07-02 04:17:00,66.7,66.5,29.93,NW,315,0.0,0.0,99,0.00,CLR,,0.06,WeatherDisplay:10.37,2013-07-02 08:17:00,
2013-07-02 04:22:00,66.7,66.5,29.93,NW,315,0.0,0.0,99,0.00,CLR,,0.06,WeatherDisplay:10.37,2013-07-02 08:22:00,
2013-07-02 04:27:00,66.7,66.5,29.93,North,0,0.0,0.0,99,0.00,CLR,,0.06,WeatherDisplay:10.37,2013-07-02 08:27:00,
2013-07-02 04:32:00,66.7,66.5,29.93,North,0,0.0,0.0,99,0.00,CLR,,0.06,WeatherDisplay:10.37,2013-07-02 08:32:00,
2013-07-02 04:37:00,66.6,66.3,29.93,West,270,0.0,0.0,99,0.00,CLR,,0.06,WeatherDisplay:10.37,2013-07-02 08:37:00,
2013-07-02 04:42:00,66.6,66.3,29.93,North,0,0.0,0.0,99,0.00,CLR,,0.06,WeatherDisplay:10.37,2013-07-02 08:42:00,
2013-07-02 04:47:00,66.6,66.3,29.93,North,0,0.0,0.0,99,0.00,CLR,,0.06,WeatherDisplay:10.37,2013-07-02 08:47:00,
2013-07-02 04:52:00,66.6,66.3,29.93,North,0,0.0,0.0,99,0.00,CLR,,0.06,WeatherDisplay:10.37,2013-07-02 08:52:00,
2013-07-02 04:57:00,66.6,66.3,29.94,North,0,0.0,0.0,99,0.00,CLR,,0.06,WeatherDisplay:10.37,2013-07-02 08:57:00,
2013-07-02 05:02:00,66.6,66.3,29.94,North,0,0.0,0.0,99,0.00,CLR,,0.06,WeatherDisplay:10.37,2013-07-02 09:02:00,
2013-07-02 05:07:00,66.6,66.3,29.94,North,0,0.0,0.0,99,0.00,CLR,,0.06,WeatherDisplay:10.37,2013-07-02 09:07:00,
2013-07-02 05:12:00,66.6,66.3,29.94,North,0,0.0,0.0,99,0.00,CLR,,0.06,WeatherDisplay:10.37,2013-07-02 09:12:00,
2013-07-02 05:17:00,66.6,66.3,29.94,SW,225,0.0,0.0,99,0.00,CLR,,0.06,WeatherDisplay:10.37,2013-07-02 09:17:00,
2013-07-02 05:22:00,66.6,66.3,29.94,WNW,292,0.0,0.0,99,0.00,CLR,,0.06,WeatherDisplay:10.37,2013-07-02 09:22:00,
2013-07-02 05:27:00,66.6,66.3,29.94,North,0,0.0,0.0,99,0.00,CLR,,0.06,WeatherDisplay:10.37,2013-07-02 09:27:00,
2013-07-02 05:32:00,66.6,66.3,29.95,North,0,0.0,0.0,99,0.00,CLR,,0.06,WeatherDisplay:10.37,2013-07-02 09:32:00,
2013-07-02 05:37:00,66.6,66.3,29.94,North,0,0.0,0.0,99,0.00,CLR,,0.06,WeatherDisplay:10.37,2013-07-02 09:37:00,
2013-07-02 05:42:00,66.6,66.3,29.95,North,0,0.0,0.0,99,0.00,CLR,,0.06,WeatherDisplay:10.37,2013-07-02 09:42:00,
2013-07-02 05:47:00,66.6,66.3,29.95,North,0,0.0,0.0,99,0.00,CLR,,0.06,WeatherDisplay:10.37,2013-07-02 09:47:00,
2013-07-02 05:52:00,66.6,66.3,29.95,North,0,0.0,0.0,99,0.00,CLR,,0.06,WeatherDisplay:10.37,2013-07-02 09:52:00,
2013-07-02 05:57:00,66.6,66.3,29.95,North,0,0.0,0.0,99,0.00,CLR,,0.06,WeatherDisplay:10.37,2013-07-02 09:57:00,
2013-07-02 06:02:00,66.6,66.3,29.95,North,0,0.0,0.0,99,0.00,CLR,,0.06,WeatherDisplay:10.37,2013-07-02 10:02:00,
2013-07-02 06:07:00,66.6,66.3,29.95,North,0,0.0,0.0,99,0.00,CLR,,0.06,WeatherDisplay:10.37,2013-07-02 10:07:00,
2013-07-02 06:12:00,66.4,66.1,29.95,North,0,0.0,0.0,99,0.00,CLR,,0.06,WeatherDisplay:10.37,2013-07-02 10:12:00,
2013-07-02 06:17:00,66.2,65.9,29.95,North,0,0.0,0.0,99,0.00,CLR,,0.06,WeatherDisplay:10.37,2013-07-02 10:17:00,
2013-07-02 06:22:00,66.0,65.7,29.95,North,0,0.0,0.0,99,0.00,CLR,,0.06,WeatherDisplay:10.37,2013-07-02 10:22:00,
2013-07-02 06:27:00,65.8,65.6,29.95,North,0,0.0,0.0,99,0.00,CLR,,0.06,WeatherDisplay:10.37,2013-07-02 10:27:00,
2013-07-02 06:32:00,65.8,65.6,29.96,North,0,0.0,0.0,99,0.00,CLR,,0.06,WeatherDisplay:10.37,2013-07-02 10:32:00,
2013-07-02 06:37:00,65.7,65.4,29.95,North,0,0.0,0.0,99,0.00,CLR,,0.06,WeatherDisplay:10.37,2013-07-02 10:37:00,
2013-07-02 06:42:00,65.7,65.4,29.96,North,0,0.0,0.0,99,0.00,CLR,,0.06,WeatherDisplay:10.37,2013-07-02 10:42:00,
2013-07-02 06:47:00,65.7,65.4,29.97,North,0,0.0,0.0,99,0.00,CLR,,0.06,WeatherDisplay:10.37,2013-07-02 10:47:00,
2013-07-02 06:52:00,65.7,65.4,29.97,North,0,0.0,0.0,99,0.01,RA,,0.07,WeatherDisplay:10.37,2013-07-02 10:52:00,
2013-07-02 06:57:00,65.7,65.4,29.97,North,0,0.0,0.0,99,0.01,RA,,0.07,WeatherDisplay:10.37,2013-07-02 10:57:00,
2013-07-02 07:02:00,65.7,65.4,29.97,North,0,0.0,0.0,99,0.01,CLR,,0.07,WeatherDisplay:10.37,2013-07-02 11:02:00,
2013-07-02 07:07:00,65.8,65.6,29.97,North,0,0.0,0.0,99,0.01,CLR,,0.07,WeatherDisplay:10.37,2013-07-02 11:07:00,
2013-07-02 07:12:00,66.0,65.7,29.97,North,0,0.0,0.0,99,0.01,CLR,,0.07,WeatherDisplay:10.37,2013-07-02 11:12:00,
2013-07-02 07:17:00,66.2,65.9,29.97,North,0,1.1,0.0,99,0.01,CLR,,0.07,WeatherDisplay:10.37,2013-07-02 11:17:00,
2013-07-02 07:22:00,66.4,66.1,29.98,North,0,0.0,0.0,99,0.01,CLR,,0.07,WeatherDisplay:10.37,2013-07-02 11:22:00,
2013-07-02 07:27:00,66.6,66.3,29.98,North,0,0.0,0.0,99,0.01,CLR,,0.07,WeatherDisplay:10.37,2013-07-02 11:27:00,
2013-07-02 07:32:00,66.6,66.3,29.98,North,0,0.0,0.0,99,0.01,CLR,,0.07,WeatherDisplay:10.37,2013-07-02 11:32:00,
2013-07-02 07:37:00,66.7,66.5,29.98,North,0,0.0,0.0,99,0.01,CLR,,0.07,WeatherDisplay:10.37,2013-07-02 11:37:00,
2013-07-02 07:42:00,67.1,66.8,29.99,North,0,0.0,0.0,99,0.01,CLR,,0.07,WeatherDisplay:10.37,2013-07-02 11:42:00,
2013-07-02 07:47:00,67.3,67.0,29.99,SW,225,0.0,0.0,99,0.01,CLR,,0.07,WeatherDisplay:10.37,2013-07-02 11:47:00,
2013-07-02 07:52:00,67.5,67.2,29.99,SW,225,0.0,0.0,99,0.00,CLR,,0.07,WeatherDisplay:10.37,2013-07-02 11:52:00,
2013-07-02 07:57:00,67.5,67.2,29.99,SW,225,0.0,0.0,99,0.00,CLR,,0.07,WeatherDisplay:10.37,2013-07-02 11:57:00,
2013-07-02 08:02:00,67.6,67.3,29.99,SW,225,0.0,0.0,99,0.00,CLR,,0.07,WeatherDisplay:10.37,2013-07-02 12:02:00,
2013-07-02 08:07:00,67.6,67.3,29.99,NE,45,0.0,0.0,99,0.00,CLR,,0.07,WeatherDisplay:10.37,2013-07-02 12:07:00,
2013-07-02 08:12:00,67.6,67.3,29.99,SE,135,0.0,0.0,99,0.00,CLR,,0.07,WeatherDisplay:10.37,2013-07-02 12:12:00,
2013-07-02 08:17:00,67.8,67.5,29.99,SW,225,0.0,0.0,99,0.00,CLR,,0.07,WeatherDisplay:10.37,2013-07-02 12:17:00,
2013-07-02 08:22:00,68.0,67.7,29.99,South,180,0.0,0.0,99,0.00,CLR,,0.07,WeatherDisplay:10.37,2013-07-02 12:22:00,
2013-07-02 08:27:00,68.2,67.9,30.00,South,180,0.0,0.0,99,0.00,CLR,,0.07,WeatherDisplay:10.37,2013-07-02 12:27:00,
2013-07-02 08:32:00,68.4,68.1,30.00,South,180,0.0,0.0,99,0.00,CLR,,0.07,WeatherDisplay:10.37,2013-07-02 12:32:00,
2013-07-02 08:37:00,68.4,68.1,30.00,SW,225,0.0,0.0,99,0.00,CLR,,0.07,WeatherDisplay:10.37,2013-07-02 12:37:00,
2013-07-02 08:42:00,68.4,68.1,30.00,South,180,0.0,0.0,99,0.00,CLR,,0.07,WeatherDisplay:10.37,2013-07-02 12:42:00,
2013-07-02 08:47:00,68.5,68.2,30.01,SW,225,0.0,0.0,99,0.00,CLR,,0.07,WeatherDisplay:10.37,2013-07-02 12:47:00,
2013-07-02 08:52:00,68.5,68.2,30.01,South,180,0.0,0.0,99,0.00,CLR,,0.07,WeatherDisplay:10.37,2013-07-02 12:52:00,
2013-07-02 08:57:00,68.7,68.4,30.00,West,270,0.0,0.0,99,0.00,CLR,,0.07,WeatherDisplay:10.37,2013-07-02 12:57:00,
2013-07-02 09:02:00,68.7,68.4,30.00,North,0,0.0,0.0,99,0.00,CLR,,0.07,WeatherDisplay:10.37,2013-07-02 13:02:00,
2013-07-02 09:07:00,68.9,68.6,30.00,West,270,0.0,0.0,99,0.00,CLR,,0.07,WeatherDisplay:10.37,2013-07-02 13:07:00,
2013-07-02 09:12:00,69.1,68.8,30.00,SW,225,0.0,0.0,99,0.00,CLR,,0.07,WeatherDisplay:10.37,2013-07-02 13:12:00,
2013-07-02 09:17:00,69.3,69.0,30.00,SW,225,0.0,0.0,99,0.00,CLR,,0.07,WeatherDisplay:10.37,2013-07-02 13:17:00,
2013-07-02 09:22:00,69.4,69.1,30.00,South,180,1.1,0.0,99,0.00,CLR,,0.07,WeatherDisplay:10.37,2013-07-02 13:22:00,
2013-07-02 09:27:00,69.4,69.1,30.00,South,180,0.0,0.0,99,0.00,CLR,,0.07,WeatherDisplay:10.37,2013-07-02 13:27:00,
2013-07-02 09:32:00,69.6,69.3,30.00,South,180,0.0,0.0,99,0.00,CLR,,0.07,WeatherDisplay:10.37,2013-07-02 13:32:00,
2013-07-02 09:37:00,70.2,69.6,30.01,SE,135,0.0,0.0,98,0.00,CLR,,0.07,WeatherDisplay:10.37,2013-07-02 13:37:00,
2013-07-02 09:42:00,70.3,69.7,30.01,South,180,7.0,7.0,98,0.00,CLR,,0.07,WeatherDisplay:10.37,2013-07-02 13:42:00,
2013-07-02 09:47:00,70.3,69.7,30.01,South,180,2.3,2.3,98,0.00,CLR,,0.07,WeatherDisplay:10.37,2013-07-02 13:47:00,
2013-07-02 09:52:00,70.5,69.9,30.01,South,180,0.0,1.3,98,0.00,CLR,,0.07,WeatherDisplay:10.37,2013-07-02 13:52:00,
2013-07-02 09:57:00,70.5,69.9,30.01,SW,225,4.6,0.0,98,0.00,CLR,,0.07,WeatherDisplay:10.37,2013-07-02 13:57:00,
2013-07-02 10:02:00,70.7,70.1,30.01,West,270,2.3,2.3,98,0.00,CLR,,0.07,WeatherDisplay:10.37,2013-07-02 14:02:00,
2013-07-02 10:07:00,70.9,70.3,30.01,SW,225,4.6,0.0,98,0.00,CLR,,0.07,WeatherDisplay:10.37,2013-07-02 14:07:00,
2013-07-02 10:12:00,71.2,70.6,30.01,SW,225,5.8,5.8,98,0.00,CLR,,0.07,WeatherDisplay:10.37,2013-07-02 14:12:00,
2013-07-02 10:17:00,71.6,70.7,30.01,South,180,4.6,4.6,97,0.00,CLR,,0.07,WeatherDisplay:10.37,2013-07-02 14:17:00,
2013-07-02 10:22:00,71.8,70.9,30.01,South,180,2.3,2.3,97,0.00,CLR,,0.07,WeatherDisplay:10.37,2013-07-02 14:22:00,
2013-07-02 10:27:00,72.1,71.2,30.01,WSW,248,4.6,4.6,97,0.00,CLR,,0.07,WeatherDisplay:10.37,2013-07-02 14:27:00,
2013-07-02 10:32:00,73.0,72.1,30.02,South,180,5.8,5.8,97,0.00,CLR,,0.07,WeatherDisplay:10.37,2013-07-02 14:32:00,
2013-07-02 10:37:00,73.2,72.3,30.01,South,180,4.6,4.6,97,0.00,CLR,,0.07,WeatherDisplay:10.37,2013-07-02 14:37:00,
2013-07-02 10:42:00,72.9,71.7,30.02,NW,315,5.8,5.8,96,0.00,CLR,,0.07,WeatherDisplay:10.37,2013-07-02 14:42:00,
2013-07-02 10:47:00,72.9,71.3,30.02,SW,225,4.6,4.6,95,0.00,CLR,,0.07,WeatherDisplay:10.37,2013-07-02 14:47:00,
2013-07-02 10:52:00,73.0,71.5,30.02,SW,225,4.6,4.6,95,0.00,CLR,,0.07,WeatherDisplay:10.37,2013-07-02 14:52:00,
2013-07-02 10:57:00,73.0,71.2,30.02,South,180,4.6,4.6,94,0.00,CLR,,0.07,WeatherDisplay:10.37,2013-07-02 14:57:00,
2013-07-02 11:02:00,73.0,71.2,30.02,South,180,1.1,5.7,94,0.00,CLR,,0.07,WeatherDisplay:10.37,2013-07-02 15:02:00,
2013-07-02 11:07:00,72.9,70.7,30.02,SW,225,0.0,0.0,93,0.00,CLR,,0.07,WeatherDisplay:10.37,2013-07-02 15:07:00,
2013-07-02 11:12:00,72.9,70.7,30.02,NW,315,4.6,0.0,93,0.00,CLR,,0.07,WeatherDisplay:10.37,2013-07-02 15:12:00,
2013-07-02 11:17:00,72.9,70.7,30.02,West,270,2.3,0.0,93,0.00,CLR,,0.07,WeatherDisplay:10.37,2013-07-02 15:17:00,
2013-07-02 11:22:00,73.6,72.1,30.02,South,180,2.3,2.3,95,0.00,CLR,,0.07,WeatherDisplay:10.37,2013-07-02 15:22:00,
2013-07-02 11:27:00,74.5,72.6,30.02,SW,225,5.8,5.8,94,0.00,CLR,,0.07,WeatherDisplay:10.37,2013-07-02 15:27:00,
2013-07-02 11:32:00,75.2,72.7,30.02,SW,225,5.8,5.8,92,0.00,CLR,,0.07,WeatherDisplay:10.37,2013-07-02 15:32:00,
2013-07-02 11:37:00,75.9,73.1,30.02,SSW,202,2.3,2.7,91,0.00,CLR,,0.07,WeatherDisplay:10.37,2013-07-02 15:37:00,
2013-07-02 11:42:00,76.1,72.6,30.02,South,180,11.5,11.5,89,0.00,CLR,,0.07,WeatherDisplay:10.37,2013-07-02 15:42:00,
2013-07-02 11:47:00,76.8,73.0,30.02,SW,225,5.8,5.8,88,0.00,CLR,,0.07,WeatherDisplay:10.37,2013-07-02 15:47:00,
2013-07-02 11:52:00,77.0,72.5,30.02,South,180,5.8,5.8,86,0.00,CLR,,0.07,WeatherDisplay:10.37,2013-07-02 15:52:00,
2013-07-02 11:57:00,77.0,72.1,30.02,West,270,8.1,8.1,85,0.00,CLR,,0.07,WeatherDisplay:10.37,2013-07-02 15:57:00,
2013-07-02 12:02:00,76.5,72.0,30.02,SW,225,6.9,6.9,86,0.00,CLR,,0.07,WeatherDisplay:10.37,2013-07-02 16:02:00,
2013-07-02 12:07:00,77.4,72.8,30.01,South,180,5.8,5.8,86,0.00,CLR,,0.07,WeatherDisplay:10.37,2013-07-02 16:07:00,
2013-07-02 12:12:00,77.2,72.3,30.02,SW,225,1.1,0.0,85,0.00,CLR,,0.07,WeatherDisplay:10.37,2013-07-02 16:12:00,
2013-07-02 12:17:00,76.6,72.1,30.02,SW,225,0.0,0.0,86,0.00,CLR,,0.07,WeatherDisplay:10.37,2013-07-02 16:17:00,
2013-07-02 12:22:00,76.3,72.1,30.02,NW,315,0.0,0.0,87,0.00,CLR,,0.07,WeatherDisplay:10.37,2013-07-02 16:22:00,
2013-07-02 12:27:00,75.9,72.1,30.02,SW,225,4.6,4.6,88,0.00,CLR,,0.07,WeatherDisplay:10.37,2013-07-02 16:27:00,
2013-07-02 12:32:00,76.6,72.8,30.02,South,180,2.3,2.3,88,0.00,CLR,,0.07,WeatherDisplay:10.37,2013-07-02 16:32:00,
2013-07-02 12:37:00,77.2,72.3,30.02,South,180,5.8,5.8,85,0.00,CLR,,0.07,WeatherDisplay:10.37,2013-07-02 16:37:00,
2013-07-02 12:42:00,77.2,72.3,30.02,West,270,0.0,0.0,85,0.00,CLR,,0.07,WeatherDisplay:10.37,2013-07-02 16:42:00,
2013-07-02 12:47:00,76.8,72.3,30.02,NW,315,0.0,0.0,86,0.00,CLR,,0.07,WeatherDisplay:10.37,2013-07-02 16:47:00,
2013-07-02 12:52:00,77.2,72.7,30.01,NE,45,1.1,0.0,86,0.00,CLR,,0.07,WeatherDisplay:10.37,2013-07-02 16:52:00,
2013-07-02 12:57:00,78.1,73.5,30.01,SW,225,2.3,2.3,86,0.00,CLR,,0.07,WeatherDisplay:10.37,2013-07-02 16:57:00,
2013-07-02 13:02:00,79.3,74.1,30.01,SE,135,6.9,6.9,84,0.00,CLR,,0.07,WeatherDisplay:10.37,2013-07-02 17:02:00,
2013-07-02 13:07:00,79.7,73.7,30.01,SSW,202,5.8,5.8,82,0.00,CLR,,0.07,WeatherDisplay:10.37,2013-07-02 17:07:00,
2013-07-02 13:12:00,80.4,74.1,30.01,South,180,17.3,17.3,81,0.00,CLR,,0.07,WeatherDisplay:10.37,2013-07-02 17:12:00,
2013-07-02 13:17:00,81.1,74.4,30.01,SW,225,6.9,6.9,80,0.00,CLR,,0.07,WeatherDisplay:10.37,2013-07-02 17:17:00,
2013-07-02 13:22:00,81.3,74.2,30.01,WSW,248,2.3,0.0,79,0.00,CLR,,0.07,WeatherDisplay:10.37,2013-07-02 17:22:00,
2013-07-02 13:27:00,80.6,72.7,30.01,SW,225,4.6,0.0,77,0.00,CLR,,0.07,WeatherDisplay:10.37,2013-07-02 17:27:00,
2013-07-02 13:32:00,80.2,73.1,30.01,SW,225,2.3,2.3,79,0.00,CLR,,0.07,WeatherDisplay:10.37,2013-07-02 17:32:00,
2013-07-02 13:37:00,80.1,73.0,30.01,West,270,5.8,0.0,79,0.00,CLR,,0.07,WeatherDisplay:10.37,2013-07-02 17:37:00,
2013-07-02 13:42:00,80.6,71.9,30.01,South,180,6.9,6.9,75,0.00,CLR,,0.07,WeatherDisplay:10.37,2013-07-02 17:42:00,
2013-07-02 13:47:00,81.0,72.3,30.01,SE,135,6.9,6.9,75,0.00,CLR,,0.07,WeatherDisplay:10.37,2013-07-02 17:47:00,
2013-07-02 13:52:00,80.8,71.7,30.01,South,180,13.8,13.8,74,0.00,CLR,,0.07,WeatherDisplay:10.37,2013-07-02 17:52:00,
2013-07-02 13:57:00,81.7,73.4,30.00,SW,225,5.8,5.8,76,0.00,CLR,,0.07,WeatherDisplay:10.37,2013-07-02 17:57:00,
2013-07-02 14:02:00,81.7,72.2,30.00,West,270,8.1,8.1,73,0.00,CLR,,0.07,WeatherDisplay:10.37,2013-07-02 18:02:00,
2013-07-02 14:07:00,81.1,72.1,30.01,SW,225,5.8,5.8,74,0.00,CLR,,0.07,WeatherDisplay:10.37,2013-07-02 18:07:00,
2013-07-02 14:12:00,81.9,72.4,30.00,SW,225,6.9,6.9,73,0.00,CLR,,0.07,WeatherDisplay:10.37,2013-07-02 18:12:00,
2013-07-02 14:17:00,82.9,73.0,30.00,South,180,12.7,12.7,72,0.00,CLR,,0.07,WeatherDisplay:10.37,2013-07-02 18:17:00,
2013-07-02 14:22:00,82.8,71.5,30.00,SW,225,11.5,11.5,69,0.00,CLR,,0.07,WeatherDisplay:10.37,2013-07-02 18:22:00,
2013-07-02 14:27:00,83.1,71.9,30.00,South,180,11.5,11.5,69,0.00,CLR,,0.07,WeatherDisplay:10.37,2013-07-02 18:27:00,
2013-07-02 14:32:00,83.5,72.7,30.00,South,180,10.4,10.4,70,0.00,CLR,,0.07,WeatherDisplay:10.37,2013-07-02 18:32:00,
2013-07-02 14:37:00,83.7,72.8,30.00,SW,225,8.1,8.1,70,0.00,CLR,,0.07,WeatherDisplay:10.37,2013-07-02 18:37:00,
2013-07-02 14:42:00,83.7,72.0,30.00,South,180,10.4,10.4,68,0.00,CLR,,0.07,WeatherDisplay:10.37,2013-07-02 18:42:00,
2013-07-02 14:47:00,83.7,72.0,30.00,SW,225,4.6,4.6,68,0.00,CLR,,0.07,WeatherDisplay:10.37,2013-07-02 18:47:00,
2013-07-02 14:52:00,83.7,72.0,30.00,South,180,11.5,11.5,68,0.00,CLR,,0.07,WeatherDisplay:10.37,2013-07-02 18:52:00,
2013-07-02 14:57:00,83.5,72.2,30.00,South,180,6.9,6.9,69,0.00,CLR,,0.07,WeatherDisplay:10.37,2013-07-02 18:57:00,
2013-07-02 15:02:00,82.8,71.5,29.99,South,180,5.8,5.8,69,0.00,CLR,,0.07,WeatherDisplay:10.37,2013-07-02 19:02:00,
2013-07-02 15:07:00,82.4,72.0,29.99,NW,315,2.3,0.0,71,0.00,CLR,,0.07,WeatherDisplay:10.37,2013-07-02 19:07:00,
2013-07-02 15:12:00,83.1,71.5,30.00,South,180,18.4,18.4,68,0.00,CLR,,0.07,WeatherDisplay:10.37,2013-07-02 19:12:00,
2013-07-02 15:17:00,83.5,71.4,29.99,SE,135,12.7,12.7,67,0.00,CLR,,0.07,WeatherDisplay:10.37,2013-07-02 19:17:00,
2013-07-02 15:22:00,83.7,71.5,30.00,SW,225,10.4,10.4,67,0.00,CLR,,0.07,WeatherDisplay:10.37,2013-07-02 19:22:00,
2013-07-02 15:27:00,84.6,71.9,29.99,SW,225,13.8,13.8,66,0.00,CLR,,0.07,WeatherDisplay:10.37,2013-07-02 19:27:00,
2013-07-02 15:32:00,84.9,72.3,29.99,South,180,11.5,11.5,66,0.00,CLR,,0.07,WeatherDisplay:10.37,2013-07-02 19:32:00,
2013-07-02 15:37:00,84.4,71.8,29.99,East,90,5.8,5.8,66,0.00,CLR,,0.07,WeatherDisplay:10.37,2013-07-02 19:37:00,
2013-07-02 15:42:00,85.3,73.1,29.99,South,180,5.8,5.8,67,0.00,CLR,,0.07,WeatherDisplay:10.37,2013-07-02 19:42:00,
2013-07-02 15:47:00,85.5,71.9,30.00,South,180,12.7,12.7,64,0.00,CLR,,0.07,WeatherDisplay:10.37,2013-07-02 19:47:00,
2013-07-02 15:52:00,84.2,71.2,29.99,NW,315,6.9,0.0,65,0.00,CLR,,0.07,WeatherDisplay:10.37,2013-07-02 19:52:00,
2013-07-02 15:57:00,83.7,72.0,29.99,NE,45,2.3,2.3,68,0.00,CLR,,0.07,WeatherDisplay:10.37,2013-07-02 19:57:00,
2013-07-02 16:02:00,84.4,71.8,29.99,South,180,11.5,11.5,66,0.00,CLR,,0.07,WeatherDisplay:10.37,2013-07-02 20:02:00,
2013-07-02 16:07:00,84.2,71.6,29.99,South,180,5.8,5.8,66,0.00,CLR,,0.07,WeatherDisplay:10.37,2013-07-02 20:07:00,
2013-07-02 16:12:00,83.7,71.5,29.99,SE,135,8.1,8.1,67,0.00,CLR,,0.07,WeatherDisplay:10.37,2013-07-02 20:12:00,
2013-07-02 16:17:00,83.3,72.1,29.99,NNW,338,4.6,0.0,69,0.00,CLR,,0.07,WeatherDisplay:10.37,2013-07-02 20:17:00,
2013-07-02 16:22:00,83.5,73.1,29.99,SE,135,4.6,0.0,71,0.00,CLR,,0.07,WeatherDisplay:10.37,2013-07-02 20:22:00,
2013-07-02 16:27:00,83.1,71.0,29.99,SE,135,4.6,4.6,67,0.00,CLR,,0.07,WeatherDisplay:10.37,2013-07-02 20:27:00,
2013-07-02 16:32:00,82.6,72.2,29.99,West,270,1.1,0.0,71,0.00,CLR,,0.07,WeatherDisplay:10.37,2013-07-02 20:32:00,
2013-07-02 16:37:00,81.5,72.0,29.99,North,0,4.6,4.6,73,0.00,CLR,,0.07,WeatherDisplay:10.37,2013-07-02 20:37:00,
2013-07-02 16:42:00,80.1,71.0,30.00,SW,225,0.0,0.0,74,0.00,CLR,,0.07,WeatherDisplay:10.37,2013-07-02 20:42:00,
2013-07-02 16:47:00,79.2,70.9,29.99,NW,315,4.6,0.0,76,0.00,CLR,,0.07,WeatherDisplay:10.37,2013-07-02 20:47:00,
2013-07-02 16:52:00,78.8,71.0,29.99,West,270,1.1,0.0,77,0.00,CLR,,0.07,WeatherDisplay:10.37,2013-07-02 20:52:00,
2013-07-02 16:57:00,78.6,71.9,29.99,North,0,4.6,0.0,80,0.00,CLR,,0.07,WeatherDisplay:10.37,2013-07-02 20:57:00,
2013-07-02 17:02:00,78.6,71.9,29.99,SW,225,0.0,0.0,80,0.00,CLR,,0.07,WeatherDisplay:10.37,2013-07-02 21:02:00,
2013-07-02 17:08:00,79.5,71.3,30.00,East,90,5.8,5.8,76,0.00,CLR,,0.07,WeatherDisplay:10.37,2013-07-02 21:08:00,
2013-07-02 17:13:00,79.5,71.3,30.00,NW,315,8.1,0.0,76,0.00,CLR,,0.07,WeatherDisplay:10.37,2013-07-02 21:13:00,
2013-07-02 17:18:00,79.3,71.5,29.99,NW,315,0.0,0.0,77,0.00,CLR,,0.07,WeatherDisplay:10.37,2013-07-02 21:18:00,
2013-07-02 17:23:00,79.2,70.9,29.99,NW,315,0.0,0.0,76,0.00,CLR,,0.07,WeatherDisplay:10.37,2013-07-02 21:23:00,
2013-07-02 17:28:00,78.8,71.4,29.99,NW,315,0.0,0.0,78,0.00,CLR,,0.07,WeatherDisplay:10.37,2013-07-02 21:28:00,
2013-07-02 17:33:00,78.3,71.6,30.00,NW,315,0.0,0.0,80,0.00,CLR,,0.07,WeatherDisplay:10.37,2013-07-02 21:33:00,
2013-07-02 17:38:00,78.1,71.8,30.00,NW,315,0.0,0.0,81,0.00,CLR,,0.07,WeatherDisplay:10.37,2013-07-02 21:38:00,
2013-07-02 17:43:00,77.5,71.6,30.00,West,270,4.6,4.6,82,0.00,CLR,,0.07,WeatherDisplay:10.37,2013-07-02 21:43:00,
2013-07-02 17:48:00,77.0,71.4,30.00,North,0,11.5,11.5,83,0.00,CLR,,0.07,WeatherDisplay:10.37,2013-07-02 21:48:00,
2013-07-02 17:53:00,75.9,69.3,30.01,South,180,5.8,5.8,80,0.00,CLR,,0.07,WeatherDisplay:10.37,2013-07-02 21:53:00,
2013-07-02 17:58:00,74.8,69.0,30.01,North,0,5.8,5.8,82,0.00,CLR,,0.07,WeatherDisplay:10.37,2013-07-02 21:58:00,
2013-07-02 18:03:00,73.6,68.4,30.00,North,0,2.3,0.0,84,0.00,CLR,,0.07,WeatherDisplay:10.37,2013-07-02 22:03:00,
2013-07-02 18:08:00,72.7,67.6,30.00,NW,315,1.1,0.0,84,0.00,CLR,,0.07,WeatherDisplay:10.37,2013-07-02 22:08:00,
2013-07-02 18:13:00,72.1,67.7,30.00,SW,225,4.6,4.6,86,0.00,CLR,,0.07,WeatherDisplay:10.37,2013-07-02 22:13:00,
2013-07-02 18:18:00,72.0,68.2,30.00,East,90,4.6,4.6,88,0.00,CLR,,0.07,WeatherDisplay:10.37,2013-07-02 22:18:00,
2013-07-02 18:23:00,72.0,68.5,30.00,NE,45,2.3,2.3,89,0.00,CLR,,0.07,WeatherDisplay:10.37,2013-07-02 22:23:00,
2013-07-02 18:28:00,72.0,68.9,30.00,North,0,0.0,0.0,90,0.00,CLR,,0.07,WeatherDisplay:10.37,2013-07-02 22:28:00,
2013-07-02 18:33:00,72.0,69.2,30.00,SW,225,0.0,0.0,91,0.00,CLR,,0.07,WeatherDisplay:10.37,2013-07-02 22:33:00,
2013-07-02 18:38:00,72.0,69.2,30.01,West,270,0.0,0.0,91,0.00,CLR,,0.07,WeatherDisplay:10.37,2013-07-02 22:38:00,
2013-07-02 18:43:00,72.1,69.7,30.00,NW,315,0.0,0.0,92,0.00,CLR,,0.07,WeatherDisplay:10.37,2013-07-02 22:43:00,
2013-07-02 18:48:00,72.1,69.7,30.00,North,0,2.7,0.0,92,0.00,CLR,,0.07,WeatherDisplay:10.37,2013-07-02 22:48:00,
2013-07-02 18:53:00,72.1,69.7,30.00,NW,315,0.0,0.0,92,0.00,CLR,,0.07,WeatherDisplay:10.37,2013-07-02 22:53:00,
2013-07-02 18:58:00,72.1,69.7,30.00,NW,315,0.0,0.0,92,0.00,CLR,,0.07,WeatherDisplay:10.37,2013-07-02 22:58:00,
2013-07-02 19:03:00,72.5,70.4,30.01,NW,315,0.0,0.0,93,0.00,CLR,,0.07,WeatherDisplay:10.37,2013-07-02 23:03:00,
2013-07-02 19:08:00,72.7,70.5,30.01,NW,315,0.0,0.0,93,0.00,CLR,,0.07,WeatherDisplay:10.37,2013-07-02 23:08:00,
2013-07-02 19:13:00,72.9,70.7,30.00,NW,315,0.0,0.0,93,0.00,CLR,,0.07,WeatherDisplay:10.37,2013-07-02 23:13:00,
2013-07-02 19:18:00,73.0,70.9,30.01,NW,315,0.0,0.0,93,0.00,CLR,,0.07,WeatherDisplay:10.37,2013-07-02 23:18:00,
2013-07-02 19:23:00,73.2,71.1,30.01,NW,315,0.0,0.0,93,0.00,CLR,,0.07,WeatherDisplay:10.37,2013-07-02 23:23:00,
2013-07-02 19:28:00,73.2,71.1,30.00,NW,315,0.0,0.0,93,0.00,CLR,,0.07,WeatherDisplay:10.37,2013-07-02 23:28:00,
2013-07-02 19:29:00,73.4,71.9,30.01,NW,315,0.0,0.0,95,0.00,CLR,,0.07,WeatherDisplay:10.37,2013-07-02 23:29:00,
2013-07-02 19:34:00,73.4,71.9,30.01,NW,315,0.0,0.0,95,0.00,CLR,,0.07,WeatherDisplay:10.37,2013-07-02 23:34:00,
2013-07-02 19:39:00,73.4,71.9,30.00,NW,315,0.0,0.0,95,0.00,CLR,,0.07,WeatherDisplay:10.37,2013-07-02 23:39:00,
2013-07-02 19:44:00,73.0,70.9,30.01,NW,315,0.0,0.0,93,0.00,CLR,,0.07,WeatherDisplay:10.37,2013-07-02 23:44:00,
2013-07-02 19:49:00,72.9,70.4,30.01,NW,315,0.0,0.0,92,0.00,CLR,,0.07,WeatherDisplay:10.37,2013-07-02 23:49:00,
2013-07-02 19:54:00,72.9,70.4,30.01,NW,315,0.0,0.0,92,0.00,CLR,,0.07,WeatherDisplay:10.37,2013-07-02 23:54:00,
2013-07-02 19:59:00,72.7,70.2,30.02,NW,315,0.0,0.0,92,0.00,CLR,,0.07,WeatherDisplay:10.37,2013-07-02 23:59:00,
2013-07-02 20:01:00,72.5,70.0,30.01,NW,315,0.0,0.0,92,0.00,CLR,,0.07,WeatherDisplay:10.37,2013-07-03 00:01:00,
2013-07-02 20:06:00,72.5,70.0,30.01,NW,315,0.0,0.0,92,0.00,CLR,,0.07,WeatherDisplay:10.37,2013-07-03 00:06:00,
2013-07-02 20:11:00,72.1,70.0,30.02,NW,315,0.0,0.0,93,0.00,CLR,,0.07,WeatherDisplay:10.37,2013-07-03 00:11:00,
2013-07-02 20:16:00,72.1,70.0,30.02,NW,315,0.0,0.0,93,0.00,CLR,,0.07,WeatherDisplay:10.37,2013-07-03 00:16:00,
2013-07-02 20:21:00,72.1,70.0,30.03,NW,315,0.0,0.0,93,0.00,CLR,,0.07,WeatherDisplay:10.37,2013-07-03 00:21:00,
2013-07-02 20:23:00,72.1,70.0,30.02,NW,315,0.0,0.0,93,0.00,CLR,,0.07,WeatherDisplay:10.37,2013-07-03 00:23:00,
2013-07-02 20:24:00,72.1,70.0,30.03,NW,315,0.0,0.0,93,0.00,CLR,,0.07,WeatherDisplay:10.37,2013-07-03 00:24:00,
2013-07-02 20:28:00,72.0,69.8,30.03,NW,315,0.0,0.0,93,0.00,CLR,,0.07,WeatherDisplay:10.37,2013-07-03 00:28:00,
2013-07-02 20:33:00,71.8,70.0,30.03,NW,315,0.0,0.0,94,0.00,CLR,,0.07,WeatherDisplay:10.37,2013-07-03 00:33:00,
2013-07-02 20:38:00,71.6,69.8,30.03,NW,315,0.0,0.0,94,0.00,CLR,,0.07,WeatherDisplay:10.37,2013-07-03 00:38:00,
2013-07-02 20:43:00,71.4,69.9,30.03,NW,315,0.0,0.0,95,0.00,CLR,,0.07,WeatherDisplay:10.37,2013-07-03 00:43:00,
2013-07-02 20:48:00,71.4,69.9,30.03,NW,315,0.0,0.0,95,0.00,CLR,,0.07,WeatherDisplay:10.37,2013-07-03 00:48:00,
2013-07-02 20:53:00,71.2,69.7,30.03,NW,315,0.0,0.0,95,0.00,CLR,,0.07,WeatherDisplay:10.37,2013-07-03 00:53:00,
2013-07-02 20:58:00,71.2,69.7,30.03,NW,315,0.0,0.0,95,0.00,CLR,,0.07,WeatherDisplay:10.37,2013-07-03 00:58:00,
2013-07-02 21:00:00,71.2,70.0,30.03,NW,315,0.0,0.0,96,0.00,CLR,,0.07,WeatherDisplay:10.37,2013-07-03 01:00:00,
2013-07-02 21:03:00,71.1,69.9,30.04,NW,315,0.0,0.0,96,0.00,CLR,,0.07,WeatherDisplay:10.37,2013-07-03 01:03:00,
2013-07-02 21:08:00,70.9,69.7,30.03,NW,315,0.0,0.0,96,0.00,CLR,,0.07,WeatherDisplay:10.37,2013-07-03 01:08:00,
2013-07-02 21:09:00,70.9,69.7,30.04,NW,315,0.0,0.0,96,0.00,CLR,,0.07,WeatherDisplay:10.37,2013-07-03 01:09:00,
2013-07-02 21:14:00,70.9,69.7,30.03,NW,315,0.0,0.0,96,0.00,CLR,,0.07,WeatherDisplay:10.37,2013-07-03 01:14:00,
2013-07-02 21:19:00,70.7,69.5,30.03,NW,315,0.0,0.0,96,0.00,CLR,,0.07,WeatherDisplay:10.37,2013-07-03 01:19:00,
2013-07-02 21:24:00,70.7,69.5,30.04,NW,315,0.0,0.0,96,0.00,CLR,,0.07,WeatherDisplay:10.37,2013-07-03 01:24:00,
2013-07-02 21:27:00,70.7,69.8,30.03,NW,315,0.0,0.0,97,0.00,CLR,,0.07,WeatherDisplay:10.37,2013-07-03 01:27:00,
2013-07-02 21:32:00,70.7,69.8,30.03,NW,315,0.0,0.0,97,0.00,CLR,,0.07,WeatherDisplay:10.37,2013-07-03 01:32:00,
2013-07-02 21:37:00,70.5,69.6,30.04,NW,315,0.0,0.0,97,0.00,CLR,,0.07,WeatherDisplay:10.37,2013-07-03 01:37:00,
2013-07-02 21:42:00,70.5,69.6,30.03,NW,315,0.0,0.0,97,0.00,CLR,,0.07,WeatherDisplay:10.37,2013-07-03 01:42:00,
2013-07-02 21:47:00,70.5,69.6,30.04,NW,315,0.0,0.0,97,0.00,CLR,,0.07,WeatherDisplay:10.37,2013-07-03 01:47:00,
2013-07-02 21:49:00,70.5,69.6,30.04,NW,315,0.0,0.0,97,0.00,CLR,,0.07,WeatherDisplay:10.37,2013-07-03 01:49:00,
2013-07-02 21:50:00,70.5,69.6,30.04,NW,315,0.0,0.0,97,0.00,CLR,,0.07,WeatherDisplay:10.37,2013-07-03 01:50:00,
2013-07-02 21:55:00,70.3,69.4,30.03,NW,315,0.0,0.0,97,0.00,CLR,,0.07,WeatherDisplay:10.37,2013-07-03 01:55:00,
2013-07-02 22:00:00,70.2,69.3,30.03,NW,315,0.0,0.0,97,0.00,CLR,,0.07,WeatherDisplay:10.37,2013-07-03 02:00:00,
2013-07-02 22:05:00,70.0,69.1,30.03,NW,315,0.0,0.0,97,0.00,CLR,,0.07,WeatherDisplay:10.37,2013-07-03 02:05:00,
2013-07-02 22:11:00,69.8,69.2,30.03,NW,315,0.0,0.0,98,0.00,CLR,,0.07,WeatherDisplay:10.37,2013-07-03 02:11:00,
2013-07-02 22:17:00,69.6,69.0,30.04,NW,315,0.0,0.0,98,0.00,CLR,,0.07,WeatherDisplay:10.37,2013-07-03 02:17:00,
2013-07-02 22:23:00,69.4,68.9,30.04,NW,315,0.0,0.0,98,0.00,CLR,,0.07,WeatherDisplay:10.37,2013-07-03 02:23:00,
2013-07-02 22:28:00,69.3,68.7,30.04,East,90,0.0,0.0,98,0.00,CLR,,0.07,WeatherDisplay:10.37,2013-07-03 02:28:00,
2013-07-02 22:32:00,69.1,68.5,30.05,East,90,0.0,0.0,98,0.00,CLR,,0.07,WeatherDisplay:10.37,2013-07-03 02:32:00,
2013-07-02 22:37:00,69.1,68.8,30.06,SW,225,1.1,0.0,99,0.00,CLR,,0.07,WeatherDisplay:10.37,2013-07-03 02:37:00,
2013-07-02 22:42:00,69.3,69.0,30.06,NW,315,0.0,0.0,99,0.00,CLR,,0.07,WeatherDisplay:10.37,2013-07-03 02:42:00,
2013-07-02 22:47:00,69.3,69.0,30.05,North,0,2.3,0.0,99,0.00,CLR,,0.07,WeatherDisplay:10.37,2013-07-03 02:47:00,
2013-07-02 22:52:00,69.4,69.1,30.06,North,0,0.0,0.0,99,0.00,CLR,,0.07,WeatherDisplay:10.37,2013-07-03 02:52:00,
2013-07-02 22:57:00,69.4,69.1,30.06,West,270,0.0,0.0,99,0.00,CLR,,0.07,WeatherDisplay:10.37,2013-07-03 02:57:00,
2013-07-02 23:02:00,69.4,69.1,30.06,North,0,0.0,0.0,99,0.00,CLR,,0.07,WeatherDisplay:10.37,2013-07-03 03:02:00,
2013-07-02 23:03:00,69.4,69.1,30.06,North,0,0.0,0.0,99,0.00,CLR,,0.07,WeatherDisplay:10.37,2013-07-03 03:03:00,
2013-07-02 23:08:00,69.4,69.1,30.06,NW,315,0.0,0.0,99,0.00,CLR,,0.07,WeatherDisplay:10.37,2013-07-03 03:08:00,
2013-07-02 23:13:00,69.4,69.1,30.06,NW,315,0.0,0.0,99,0.00,CLR,,0.07,WeatherDisplay:10.37,2013-07-03 03:13:00,
2013-07-02 23:19:00,69.4,69.1,30.06,NNW,338,0.0,0.0,99,0.00,CLR,,0.07,WeatherDisplay:10.37,2013-07-03 03:19:00,
2013-07-02 23:20:00,69.4,69.1,30.06,NW,315,0.0,0.0,99,0.00,CLR,,0.07,WeatherDisplay:10.37,2013-07-03 03:20:00,
2013-07-02 23:25:00,69.4,69.1,30.06,NW,315,2.3,0.0,99,0.00,CLR,,0.07,WeatherDisplay:10.37,2013-07-03 03:25:00,
2013-07-02 23:30:00,69.4,69.1,30.06,NW,315,0.0,0.0,99,0.00,CLR,,0.07,WeatherDisplay:10.37,2013-07-03 03:30:00,
2013-07-02 23:35:00,69.4,69.1,30.06,NW,315,0.0,0.0,99,0.00,CLR,,0.07,WeatherDisplay:10.37,2013-07-03 03:35:00,
2013-07-02 23:39:00,69.4,69.1,30.06,NW,315,0.0,0.0,99,0.00,CLR,,0.07,WeatherDisplay:10.37,2013-07-03 03:39:00,
2013-07-02 23:45:00,69.4,69.1,30.05,NW,315,0.0,0.0,99,0.00,CLR,,0.07,WeatherDisplay:10.37,2013-07-03 03:45:00,
2013-07-02 23:50:00,69.6,69.3,30.06,NW,315,0.0,0.0,99,0.00,CLR,,0.07,WeatherDisplay:10.37,2013-07-03 03:50:00,
2013-07-02 23:55:00,69.6,69.3,30.06,NW,315,0.0,0.0,99,0.00,CLR,,0.07,WeatherDisplay:10.37,2013-07-03 03:55:00,